Flag Weather past 2 weeks in Harare, Zimbabwe

Now
88 °F

Sunny.


Feels Like: 85 °F
Forecast: 60 / 93 °F
Wind: 7 mph from Northeast

Location: Harare Kutsaga Airport

Current Time: Nov 27, 2014 at 4:40:38 PM

Latest Report: Nov 27, 2014 at 4:00 PM


Visibility: 10 mi

Pressure: 30.04 "Hg

Humidity: 25%

Dew point: 48 °F

Location of HarareLocation

Historic Weather in Harare — Graph

°F

Harare temperature yesterday

Maximum temperature yesterday: 88 °F (at 1:00 PM)
Minimum temperature yesterday: 63 °F (at 5:00 AM)
Average temperature yesterday: 77 °F

Past Weeks' High & Low Weather Summary

 TemperatureHumidityPressure
High90 °F (Nov 14, 1:00 PM)100% (Nov 17, 2:00 PM)30.39 "Hg (Nov 17, 2:00 PM)
Low54 °F (Nov 19, 5:00 AM)15% (Nov 23, 3:00 PM)30.01 "Hg (Nov 13, 4:00 PM)
Average72 °F54%30.16 "Hg
* Reported Nov 12 3:00 PM — Nov 27 3:00 PM, Harare, Weather by CustomWeather, © 2014

Note: Actual official high and low records may vary slightly from our data, if they occured in-between our weather recording intervals... More about our weather records

Advertising

Harare weather history for previous 24 hours

 ConditionsComfort  
Time TempWeatherWind HumidityBarometerVisibility
3:00 PM
Nov 27
88 °FSunny.3 mph25%30.09 "Hg10 mi
2:00 PM86 °FSunny.7 mph25%30.04 "Hg10 mi
11:00 AM82 °FPassing clouds.8 mph35%30.12 "HgN/A
9:00 AM77 °FSunny.10 mph47%30.15 "Hg10 mi
8:00 AM73 °FSunny.13 mph57%30.15 "Hg10 mi
6:00 AM63 °FSunny.9 mph77%30.12 "Hg10 mi
2:00 AM64 °FClear.8 mph73%30.09 "Hg10 mi
1:00 AM66 °FClear.13 mph68%30.09 "Hg10 mi
11:00 PM
Nov 26
70 °FClear.12 mph60%30.12 "Hg10 mi
10:00 PM70 °FClear.7 mph53%30.12 "Hg10 mi
9:00 PM72 °FClear.6 mph47%30.12 "Hg10 mi
8:00 PM75 °FClear.7 mph39%30.09 "Hg10 mi
7:00 PM77 °FClear.5 mph32%30.09 "Hg10 mi
6:00 PM82 °FSunny.7 mph25%30.07 "Hg10 mi
5:00 PM86 °FSunny.14 mph24%30.07 "Hg10 mi
4:00 PM88 °FSunny.15 mph22%30.07 "Hg10 mi
Weather by CustomWeather, © 2014

See weather overviewHow to use our weather pages